Location: Melque
(41.0517°N, 4.4694°W)
Time: 12:32:26
(UTC+00:00)

SKYMED 2 - Pass Details

Date: 19 March 2026
Orbit: 622 x 624 km, 97.9° (Epoch: 14 April)

Event Time Altitude Azimuth Distance (km) Brightness Sun altitude
Rises 05:45:29 0° 175° (S) 2,889 7.0 -7.9°
Reaches altitude 10° 05:47:41 10° 179° (S) 1,987 6.1 -7.5°
Maximum altitude 05:51:58 59° 260° (W) 722 3.6 -6.7°
Drops below altitude 10° 05:56:16 10° 340° (NNW) 2,002 6.0 -5.9°
Sets 05:58:30 0° 344° (NNW) 2,913 6.9 -5.5°
